Time,TemperatureF,DewpointF,PressureIn,WindDirection,WindDirectionDegrees,WindSpeedMPH,WindSpeedGustMPH,Humidity,HourlyPrecipIn,Conditions,Clouds,dailyrainin,SoftwareType,DateUTC
2013-06-17 00:01:00,69.8,40.8,29.98,SW,225,0.0,0.9,35,0.00,,,0.00,WUHU216HW,2013-06-17 05:01:00,
2013-06-17 00:06:00,69.8,40.8,29.98,SW,225,2.0,2.9,35,0.00,,,0.00,WUHU216HW,2013-06-17 05:06:00,
2013-06-17 00:11:00,70.0,41.0,29.97,WSW,248,1.1,2.9,35,0.00,,,0.00,WUHU216HW,2013-06-17 05:11:00,
2013-06-17 00:16:00,69.8,40.8,29.98,SSW,203,1.6,2.7,35,0.00,,,0.00,WUHU216HW,2013-06-17 05:16:00,
2013-06-17 00:21:00,69.8,40.8,29.97,WSW,248,1.1,1.8,35,0.00,,,0.00,WUHU216HW,2013-06-17 05:21:00,
2013-06-17 00:26:00,69.8,40.8,29.97,WSW,248,1.8,2.5,35,0.00,,,0.00,WUHU216HW,2013-06-17 05:26:00,
2013-06-17 00:31:00,69.8,40.8,29.97,WSW,248,2.5,2.5,35,0.00,,,0.00,WUHU216HW,2013-06-17 05:31:00,
2013-06-17 00:36:00,69.7,40.6,29.97,WSW,248,1.1,3.1,35,0.00,,,0.00,WUHU216HW,2013-06-17 05:36:00,
2013-06-17 00:41:00,69.7,40.6,29.97,SW,225,0.9,3.6,35,0.00,,,0.00,WUHU216HW,2013-06-17 05:41:00,
2013-06-17 00:46:00,69.5,40.4,29.97,WSW,248,2.2,4.0,35,0.00,,,0.00,WUHU216HW,2013-06-17 05:46:00,
2013-06-17 00:51:00,69.5,40.4,29.98,SSW,203,0.4,4.0,35,0.00,,,0.00,WUHU216HW,2013-06-17 05:51:00,
2013-06-17 00:56:00,69.3,40.3,29.98,South,180,0.9,2.9,35,0.00,,,0.00,WUHU216HW,2013-06-17 05:56:00,
2013-06-17 01:01:00,69.1,40.2,29.98,South,180,0.0,0.9,35,0.00,,,0.00,WUHU216HW,2013-06-17 06:01:00,
2013-06-17 01:06:00,69.1,40.2,29.98,SE,135,0.7,0.9,35,0.00,,,0.00,WUHU216HW,2013-06-17 06:06:00,
2013-06-17 01:11:00,68.9,40.0,29.99,SE,135,1.1,1.8,35,0.00,,,0.00,WUHU216HW,2013-06-17 06:11:00,
2013-06-17 01:16:00,68.9,40.0,29.99,SE,135,0.0,1.8,35,0.00,,,0.00,WUHU216HW,2013-06-17 06:16:00,
2013-06-17 01:21:00,68.8,39.8,29.99,SE,135,0.9,1.1,35,0.00,,,0.00,WUHU216HW,2013-06-17 06:21:00,
2013-06-17 01:26:00,68.6,39.6,29.99,SE,135,0.4,1.1,35,0.00,,,0.00,WUHU216HW,2013-06-17 06:26:00,
2013-06-17 01:31:00,68.4,39.5,29.98,East,90,0.9,1.1,35,0.00,,,0.00,WUHU216HW,2013-06-17 06:31:00,
2013-06-17 01:36:00,68.0,39.2,29.98,ENE,68,0.9,1.8,35,0.00,,,0.00,WUHU216HW,2013-06-17 06:36:00,
2013-06-17 01:41:00,68.0,40.6,29.99,NE,45,4.0,4.7,37,0.00,,,0.00,WUHU216HW,2013-06-17 06:41:00,
2013-06-17 01:46:00,68.2,40.8,29.99,East,90,8.5,8.5,37,0.00,,,0.00,WUHU216HW,2013-06-17 06:46:00,
2013-06-17 01:51:00,68.6,40.4,29.99,ESE,113,6.3,10.5,36,0.00,,,0.00,WUHU216HW,2013-06-17 06:51:00,
2013-06-17 01:56:00,68.8,39.8,29.99,SE,135,8.7,10.5,35,0.00,,,0.00,WUHU216HW,2013-06-17 06:56:00,
2013-06-17 02:01:00,69.3,39.5,29.98,ENE,68,4.9,11.2,34,0.00,,,0.00,WUHU216HW,2013-06-17 07:01:00,
2013-06-17 02:06:00,69.5,39.7,29.98,ESE,113,2.5,11.2,34,0.00,,,0.00,WUHU216HW,2013-06-17 07:06:00,
2013-06-17 02:10:00,69.7,39.9,29.98,ENE,68,4.7,8.5,34,0.00,,,0.00,WUHU216HW,2013-06-17 07:10:00,
2013-06-17 02:15:00,69.8,40.1,29.97,East,90,9.4,10.1,34,0.00,,,0.00,WUHU216HW,2013-06-17 07:15:00,
2013-06-17 02:20:00,69.7,39.9,29.98,SE,135,5.8,13.2,34,0.00,,,0.00,WUHU216HW,2013-06-17 07:20:00,
2013-06-17 02:25:00,69.1,39.4,29.97,SE,135,4.0,13.2,34,0.00,,,0.00,WUHU216HW,2013-06-17 07:25:00,
2013-06-17 02:30:00,68.8,39.1,29.97,East,90,6.7,10.3,34,0.00,,,0.00,WUHU216HW,2013-06-17 07:30:00,
2013-06-17 02:35:00,68.2,38.6,29.98,East,90,3.8,10.3,34,0.00,,,0.00,WUHU216HW,2013-06-17 07:35:00,
2013-06-17 02:40:00,67.9,38.3,29.98,SE,135,1.8,6.7,34,0.00,,,0.00,WUHU216HW,2013-06-17 07:40:00,
2013-06-17 02:45:00,67.7,38.9,29.99,ENE,68,5.6,6.7,35,0.00,,,0.00,WUHU216HW,2013-06-17 07:45:00,
2013-06-17 02:50:00,67.3,38.5,29.99,ESE,113,5.8,7.4,35,0.00,,,0.00,WUHU216HW,2013-06-17 07:50:00,
2013-06-17 02:55:00,67.1,38.4,29.99,ESE,113,4.7,7.4,35,0.00,,,0.00,WUHU216HW,2013-06-17 07:55:00,
2013-06-17 03:00:00,66.6,37.2,29.99,ESE,113,4.7,8.7,34,0.04,,,0.04,WUHU216HW,2013-06-17 08:00:00,
2013-06-17 03:05:00,65.9,37.3,29.99,SE,135,3.1,8.7,35,0.04,,,0.04,WUHU216HW,2013-06-17 08:05:00,
2013-06-17 03:10:00,65.3,37.5,29.99,SSE,158,3.4,4.7,36,0.04,,,0.04,WUHU216HW,2013-06-17 08:10:00,
2013-06-17 03:15:00,65.2,37.4,29.99,SE,135,4.0,5.8,36,0.04,,,0.04,WUHU216HW,2013-06-17 08:15:00,
2013-06-17 03:20:00,65.2,38.1,29.98,ESE,113,4.0,6.3,37,0.04,,,0.04,WUHU216HW,2013-06-17 08:20:00,
2013-06-17 03:25:00,65.0,37.2,29.96,East,90,4.0,6.7,36,0.06,,,0.06,WUHU216HW,2013-06-17 08:25:00,
2013-06-17 03:30:00,64.8,37.8,29.97,ESE,113,1.8,8.1,37,0.07,,,0.07,WUHU216HW,2013-06-17 08:30:00,
2013-06-17 03:35:00,64.8,37.8,29.97,SE,135,2.7,8.1,37,0.07,,,0.07,WUHU216HW,2013-06-17 08:35:00,
2013-06-17 03:40:00,64.8,38.5,29.97,ESE,113,2.5,6.9,38,0.07,,,0.07,WUHU216HW,2013-06-17 08:40:00,
2013-06-17 03:45:00,64.8,37.8,29.96,SE,135,3.6,6.9,37,0.07,,,0.07,WUHU216HW,2013-06-17 08:45:00,
2013-06-17 03:50:00,64.6,38.4,29.95,SE,135,4.5,8.3,38,0.07,,,0.07,WUHU216HW,2013-06-17 08:50:00,
2013-06-17 03:55:00,64.4,37.4,29.94,East,90,7.8,8.7,37,0.07,,,0.07,WUHU216HW,2013-06-17 08:55:00,
2013-06-17 04:00:00,64.4,37.4,29.94,ESE,113,6.9,9.8,37,0.03,,,0.07,WUHU216HW,2013-06-17 09:00:00,
2013-06-17 04:05:00,64.4,36.7,29.93,SE,135,4.7,9.8,36,0.03,,,0.07,WUHU216HW,2013-06-17 09:05:00,
2013-06-17 04:10:00,64.6,36.9,29.93,SE,135,9.8,9.8,36,0.03,,,0.07,WUHU216HW,2013-06-17 09:10:00,
2013-06-17 04:15:00,64.4,36.7,29.93,SE,135,3.4,9.8,36,0.03,,,0.07,WUHU216HW,2013-06-17 09:15:00,
2013-06-17 04:20:00,64.6,36.2,29.92,ESE,113,8.7,9.8,35,0.02,,,0.07,WUHU216HW,2013-06-17 09:20:00,
2013-06-17 04:25:00,64.6,35.5,29.92,ESE,113,4.0,8.7,34,0.01,,,0.07,WUHU216HW,2013-06-17 09:25:00,
2013-06-17 04:30:00,64.6,35.5,29.92,ESE,113,6.3,7.8,34,0.00,,,0.07,WUHU216HW,2013-06-17 09:30:00,
2013-06-17 04:35:00,64.6,35.5,29.92,ESE,113,7.8,7.8,34,0.00,,,0.07,WUHU216HW,2013-06-17 09:35:00,
2013-06-17 04:40:00,64.6,35.5,29.92,SE,135,2.5,7.8,34,0.00,,,0.07,WUHU216HW,2013-06-17 09:40:00,
2013-06-17 04:45:00,64.6,35.5,29.93,SE,135,1.3,7.8,34,0.00,,,0.07,WUHU216HW,2013-06-17 09:45:00,
2013-06-17 04:50:00,64.6,35.5,29.93,SE,135,0.7,4.3,34,0.00,,,0.07,WUHU216HW,2013-06-17 09:50:00,
2013-06-17 04:55:00,64.4,35.3,29.93,SSE,158,0.7,2.2,34,0.00,,,0.07,WUHU216HW,2013-06-17 09:55:00,
2013-06-17 05:00:00,64.4,35.3,29.94,SW,225,1.1,2.2,34,0.00,,,0.07,WUHU216HW,2013-06-17 10:00:00,
2013-06-17 05:05:00,64.4,35.3,29.94,SSE,158,0.0,1.3,34,0.00,,,0.07,WUHU216HW,2013-06-17 10:05:00,
2013-06-17 05:10:00,64.4,35.3,29.94,SW,225,0.4,1.8,34,0.00,,,0.07,WUHU216HW,2013-06-17 10:10:00,
2013-06-17 05:15:00,64.4,35.3,29.94,SW,225,0.7,2.9,34,0.00,,,0.07,WUHU216HW,2013-06-17 10:15:00,
2013-06-17 05:20:00,64.4,35.3,29.94,WSW,248,1.8,4.7,34,0.00,,,0.07,WUHU216HW,2013-06-17 10:20:00,
2013-06-17 05:25:00,64.3,35.1,29.94,ESE,113,0.7,4.7,34,0.00,,,0.07,WUHU216HW,2013-06-17 10:25:00,
2013-06-17 05:30:00,64.4,35.3,29.94,WSW,248,1.8,1.8,34,0.00,,,0.07,WUHU216HW,2013-06-17 10:30:00,
2013-06-17 05:35:00,64.3,35.1,29.94,WSW,248,5.6,6.5,34,0.00,,,0.07,WUHU216HW,2013-06-17 10:35:00,
2013-06-17 05:40:00,64.4,35.3,29.95,SW,225,5.4,6.5,34,0.00,,,0.07,WUHU216HW,2013-06-17 10:40:00,
2013-06-17 05:45:00,64.4,35.3,29.96,WSW,248,4.0,5.6,34,0.00,,,0.07,WUHU216HW,2013-06-17 10:45:00,
2013-06-17 05:50:00,64.4,35.3,29.96,WSW,248,6.0,6.0,34,0.00,,,0.07,WUHU216HW,2013-06-17 10:50:00,
2013-06-17 05:55:00,64.6,35.5,29.96,West,270,4.5,8.1,34,0.00,,,0.07,WUHU216HW,2013-06-17 10:55:00,
2013-06-17 06:00:00,64.6,35.5,29.95,WSW,248,5.8,8.1,34,0.00,,,0.07,WUHU216HW,2013-06-17 11:00:00,
2013-06-17 06:05:00,64.6,35.5,29.94,WSW,248,5.6,7.2,34,0.00,,,0.07,WUHU216HW,2013-06-17 11:05:00,
2013-06-17 06:10:00,64.4,35.3,29.94,West,270,6.3,6.9,34,0.00,,,0.07,WUHU216HW,2013-06-17 11:10:00,
2013-06-17 06:15:00,64.4,35.3,29.94,WSW,248,3.6,6.9,34,0.00,,,0.07,WUHU216HW,2013-06-17 11:15:00,
2013-06-17 06:20:00,64.4,36.0,29.94,SW,225,5.1,6.9,35,0.00,,,0.07,WUHU216HW,2013-06-17 11:20:00,
2013-06-17 06:25:00,64.4,36.0,29.94,West,270,6.0,9.4,35,0.00,,,0.07,WUHU216HW,2013-06-17 11:25:00,
2013-06-17 06:30:00,64.6,36.2,29.94,West,270,5.4,9.4,35,0.00,,,0.07,WUHU216HW,2013-06-17 11:30:00,
2013-06-17 06:35:00,64.8,36.4,29.94,WSW,248,4.7,10.1,35,0.00,,,0.07,WUHU216HW,2013-06-17 11:35:00,
2013-06-17 06:40:00,65.0,36.5,29.94,WSW,248,6.7,10.1,35,0.00,,,0.07,WUHU216HW,2013-06-17 11:40:00,
2013-06-17 06:45:00,65.2,36.6,29.94,WSW,248,5.8,7.6,35,0.00,,,0.07,WUHU216HW,2013-06-17 11:45:00,
2013-06-17 06:50:00,65.2,36.6,29.94,WSW,248,5.4,7.6,35,0.00,,,0.07,WUHU216HW,2013-06-17 11:50:00,
2013-06-17 06:55:00,65.3,37.5,29.95,WSW,248,5.1,7.6,36,0.00,,,0.07,WUHU216HW,2013-06-17 11:55:00,
2013-06-17 07:00:00,65.5,37.7,29.95,WSW,248,4.3,8.9,36,0.00,,,0.07,WUHU216HW,2013-06-17 12:00:00,
2013-06-17 07:05:00,65.5,37.7,29.95,SW,225,6.9,8.9,36,0.00,,,0.07,WUHU216HW,2013-06-17 12:05:00,
2013-06-17 07:10:00,65.5,37.7,29.95,WSW,248,4.0,8.7,36,0.00,,,0.07,WUHU216HW,2013-06-17 12:10:00,
2013-06-17 07:15:00,65.5,37.7,29.94,SSW,203,5.4,10.1,36,0.00,,,0.07,WUHU216HW,2013-06-17 12:15:00,
2013-06-17 07:20:00,65.5,37.7,29.94,WSW,248,4.7,10.1,36,0.00,,,0.07,WUHU216HW,2013-06-17 12:20:00,
2013-06-17 07:25:00,65.5,37.7,29.93,WSW,248,5.4,8.3,36,0.00,,,0.07,WUHU216HW,2013-06-17 12:25:00,
2013-06-17 07:30:00,65.7,37.9,29.93,WSW,248,6.0,8.3,36,0.00,,,0.07,WUHU216HW,2013-06-17 12:30:00,
2013-06-17 07:35:00,65.5,37.7,29.93,SW,225,4.3,8.5,36,0.00,,,0.07,WUHU216HW,2013-06-17 12:35:00,
2013-06-17 07:40:00,65.5,37.7,29.92,WSW,248,3.4,8.5,36,0.00,,,0.07,WUHU216HW,2013-06-17 12:40:00,
2013-06-17 07:45:00,65.5,37.7,29.92,SW,225,4.9,5.8,36,0.00,,,0.07,WUHU216HW,2013-06-17 12:45:00,
2013-06-17 07:50:00,65.5,37.7,29.93,SSE,158,0.4,6.3,36,0.00,,,0.07,WUHU216HW,2013-06-17 12:50:00,
2013-06-17 07:55:00,65.5,37.7,29.92,WSW,248,1.6,6.5,36,0.00,,,0.07,WUHU216HW,2013-06-17 12:55:00,
2013-06-17 08:00:00,65.3,37.5,29.93,WSW,248,1.3,6.5,36,0.00,,,0.07,WUHU216HW,2013-06-17 13:00:00,
2013-06-17 08:05:00,65.5,37.7,29.92,WSW,248,1.1,5.8,36,0.00,,,0.07,WUHU216HW,2013-06-17 13:05:00,
2013-06-17 08:10:00,65.5,37.7,29.92,WSW,248,0.7,1.3,36,0.00,,,0.07,WUHU216HW,2013-06-17 13:10:00,
2013-06-17 08:14:00,65.5,37.7,29.92,WSW,248,0.0,1.3,36,0.01,,,0.08,WUHU216HW,2013-06-17 13:14:00,
2013-06-17 08:19:00,65.5,37.7,29.92,WSW,248,0.0,0.7,36,0.01,,,0.08,WUHU216HW,2013-06-17 13:19:00,
2013-06-17 08:24:00,65.7,37.9,29.92,SE,135,0.9,1.8,36,0.01,,,0.08,WUHU216HW,2013-06-17 13:24:00,
2013-06-17 08:29:00,65.9,38.0,29.92,North,0,0.0,1.8,36,0.01,,,0.08,WUHU216HW,2013-06-17 13:29:00,
2013-06-17 08:34:00,65.9,37.3,29.92,ENE,68,0.4,0.9,35,0.01,,,0.08,WUHU216HW,2013-06-17 13:34:00,
2013-06-17 08:39:00,66.1,37.4,29.92,North,0,0.0,0.4,35,0.01,,,0.08,WUHU216HW,2013-06-17 13:39:00,
2013-06-17 08:44:00,66.2,37.6,29.92,North,0,0.0,0.4,35,0.01,,,0.08,WUHU216HW,2013-06-17 13:44:00,
2013-06-17 08:49:00,66.4,37.8,29.92,North,0,0.0,0.0,35,0.02,,,0.09,WUHU216HW,2013-06-17 13:49:00,
2013-06-17 08:54:00,66.4,37.1,29.93,North,0,0.0,0.0,34,0.02,,,0.09,WUHU216HW,2013-06-17 13:54:00,
2013-06-17 08:59:00,66.4,37.1,29.93,North,0,0.0,0.0,34,0.02,,,0.09,WUHU216HW,2013-06-17 13:59:00,
2013-06-17 09:04:00,66.6,37.2,29.93,North,0,0.0,0.0,34,0.02,,,0.09,WUHU216HW,2013-06-17 14:04:00,
2013-06-17 09:09:00,66.6,37.2,29.93,North,0,0.0,0.0,34,0.03,,,0.10,WUHU216HW,2013-06-17 14:09:00,
2013-06-17 09:14:00,66.8,37.4,29.93,North,0,0.0,0.0,34,0.02,,,0.10,WUHU216HW,2013-06-17 14:14:00,
2013-06-17 09:19:00,66.6,37.2,29.94,North,0,0.0,0.0,34,0.02,,,0.10,WUHU216HW,2013-06-17 14:19:00,
2013-06-17 09:24:00,66.6,37.2,29.94,North,0,0.0,0.0,34,0.02,,,0.10,WUHU216HW,2013-06-17 14:24:00,
2013-06-17 09:29:00,66.6,37.2,29.94,North,0,0.0,0.0,34,0.02,,,0.10,WUHU216HW,2013-06-17 14:29:00,
2013-06-17 09:34:00,66.8,37.4,29.95,North,0,0.0,0.0,34,0.02,,,0.10,WUHU216HW,2013-06-17 14:34:00,
2013-06-17 09:39:00,66.8,37.4,29.95,North,0,0.0,0.0,34,0.02,,,0.10,WUHU216HW,2013-06-17 14:39:00,
2013-06-17 09:44:00,66.8,37.4,29.95,North,0,0.0,0.0,34,0.01,,,0.10,WUHU216HW,2013-06-17 14:44:00,
2013-06-17 09:49:00,66.8,37.4,29.96,North,0,0.0,0.0,34,0.01,,,0.10,WUHU216HW,2013-06-17 14:49:00,
2013-06-17 09:54:00,67.0,38.3,29.97,North,0,0.0,0.0,35,0.01,,,0.10,WUHU216HW,2013-06-17 14:54:00,
2013-06-17 09:59:00,67.0,37.5,29.97,East,90,5.1,5.1,34,0.01,,,0.10,WUHU216HW,2013-06-17 14:59:00,
2013-06-17 10:04:00,67.0,37.5,29.97,East,90,2.0,5.1,34,0.01,,,0.10,WUHU216HW,2013-06-17 15:04:00,
2013-06-17 10:09:00,67.0,37.5,29.97,North,0,0.4,5.1,34,0.00,,,0.10,WUHU216HW,2013-06-17 15:09:00,
2013-06-17 10:14:00,67.0,37.5,29.97,ENE,68,1.8,4.0,34,0.00,,,0.10,WUHU216HW,2013-06-17 15:14:00,
2013-06-17 10:19:00,67.0,37.5,29.98,North,0,0.0,4.0,34,0.00,,,0.10,WUHU216HW,2013-06-17 15:19:00,
2013-06-17 10:24:00,67.0,37.5,29.98,North,0,0.0,1.8,34,0.00,,,0.10,WUHU216HW,2013-06-17 15:24:00,
2013-06-17 10:29:00,67.3,37.1,29.97,North,0,0.0,0.0,33,0.00,,,0.10,WUHU216HW,2013-06-17 15:29:00,
2013-06-17 10:34:00,67.3,36.4,29.96,North,0,0.0,0.0,32,0.00,,,0.10,WUHU216HW,2013-06-17 15:34:00,
2013-06-17 10:39:00,67.3,36.4,29.97,North,0,0.0,0.0,32,0.00,,,0.10,WUHU216HW,2013-06-17 15:39:00,
2013-06-17 10:44:00,68.0,36.9,29.97,North,0,0.0,0.0,32,0.00,,,0.10,WUHU216HW,2013-06-17 15:44:00,
2013-06-17 10:49:00,68.4,36.6,29.98,North,0,0.0,0.0,31,0.00,,,0.10,WUHU216HW,2013-06-17 15:49:00,
2013-06-17 10:54:00,68.6,36.7,29.98,North,0,0.0,0.0,31,0.00,,,0.10,WUHU216HW,2013-06-17 15:54:00,
2013-06-17 10:59:00,68.2,36.4,29.97,North,0,0.0,0.0,31,0.00,,,0.10,WUHU216HW,2013-06-17 15:59:00,
2013-06-17 11:04:00,67.7,35.9,29.97,North,0,0.0,0.0,31,0.00,,,0.10,WUHU216HW,2013-06-17 16:04:00,
2013-06-17 11:09:00,67.1,35.5,29.97,North,0,0.0,0.0,31,0.00,,,0.10,WUHU216HW,2013-06-17 16:09:00,
2013-06-17 11:14:00,67.0,35.3,29.97,North,0,0.0,0.0,31,0.00,,,0.10,WUHU216HW,2013-06-17 16:14:00,
2013-06-17 11:19:00,66.8,35.9,29.97,North,0,0.0,0.0,32,0.00,,,0.10,WUHU216HW,2013-06-17 16:19:00,
2013-06-17 11:24:00,66.6,35.7,29.98,North,0,0.0,0.0,32,0.00,,,0.10,WUHU216HW,2013-06-17 16:24:00,
2013-06-17 11:29:00,66.8,35.9,29.99,North,0,0.0,0.0,32,0.00,,,0.10,WUHU216HW,2013-06-17 16:29:00,
2013-06-17 11:34:00,66.6,35.7,29.99,North,0,0.0,0.0,32,0.00,,,0.10,WUHU216HW,2013-06-17 16:34:00,
2013-06-17 11:39:00,66.6,35.7,29.99,North,0,0.0,0.0,32,0.00,,,0.10,WUHU216HW,2013-06-17 16:39:00,
2013-06-17 11:59:00,68.0,36.2,29.99,North,0,0.0,0.0,31,0.00,,,0.10,WUHU216HW,2013-06-17 16:59:00,
2013-06-17 12:04:00,68.2,35.7,29.99,North,0,0.0,0.0,30,0.00,,,0.10,WUHU216HW,2013-06-17 17:04:00,
2013-06-17 12:09:00,68.6,35.9,29.99,North,0,0.0,0.0,30,0.00,,,0.10,WUHU216HW,2013-06-17 17:09:00,
2013-06-17 12:14:00,68.6,35.9,29.99,North,0,0.0,0.0,30,0.00,,,0.10,WUHU216HW,2013-06-17 17:14:00,
2013-06-17 12:19:00,68.4,35.8,29.99,North,0,0.0,0.0,30,0.00,,,0.10,WUHU216HW,2013-06-17 17:19:00,
2013-06-17 12:24:00,68.4,35.8,29.98,North,0,0.0,0.0,30,0.00,,,0.10,WUHU216HW,2013-06-17 17:24:00,
2013-06-17 12:29:00,67.9,35.3,29.98,North,0,0.0,0.0,30,0.00,,,0.10,WUHU216HW,2013-06-17 17:29:00,
2013-06-17 12:34:00,67.9,36.1,29.98,North,0,0.0,0.0,31,0.00,,,0.10,WUHU216HW,2013-06-17 17:34:00,
2013-06-17 12:39:00,67.9,36.1,29.98,North,0,0.0,0.0,31,0.00,,,0.10,WUHU216HW,2013-06-17 17:39:00,
2013-06-17 13:00:00,67.7,35.9,29.98,North,0,0.0,0.0,31,0.01,,,0.10,WUHU216HW,2013-06-17 18:00:00,
2013-06-17 13:05:00,67.7,35.9,29.98,North,0,0.0,0.0,31,0.02,,,0.12,WUHU216HW,2013-06-17 18:05:00,
2013-06-17 13:09:00,67.7,35.9,29.98,North,0,0.0,0.0,31,0.02,,,0.12,WUHU216HW,2013-06-17 18:09:00,
2013-06-17 13:14:00,68.0,36.2,29.97,North,0,0.0,0.0,31,0.03,,,0.13,WUHU216HW,2013-06-17 18:14:00,
2013-06-17 13:19:00,67.9,36.1,29.97,North,0,0.0,0.0,31,0.03,,,0.13,WUHU216HW,2013-06-17 18:19:00,
2013-06-17 13:25:00,67.5,35.7,29.97,North,0,0.0,0.0,31,0.03,,,0.13,WUHU216HW,2013-06-17 18:25:00,
2013-06-17 13:30:00,68.0,36.9,29.96,North,0,0.0,0.0,32,0.03,,,0.13,WUHU216HW,2013-06-17 18:30:00,
2013-06-17 13:35:00,68.2,36.4,29.97,North,0,0.0,0.0,31,0.03,,,0.13,WUHU216HW,2013-06-17 18:35:00,
2013-06-17 13:40:00,68.6,36.7,29.96,North,0,0.0,0.0,31,0.03,,,0.13,WUHU216HW,2013-06-17 18:40:00,
2013-06-17 13:45:00,68.9,36.3,29.96,North,0,0.0,0.0,30,0.03,,,0.13,WUHU216HW,2013-06-17 18:45:00,
2013-06-17 13:50:00,69.5,36.7,29.96,North,0,0.0,0.0,30,0.03,,,0.13,WUHU216HW,2013-06-17 18:50:00,
2013-06-17 13:55:00,69.7,36.9,29.96,North,0,0.0,0.0,30,0.03,,,0.13,WUHU216HW,2013-06-17 18:55:00,
2013-06-17 14:00:00,69.8,36.1,29.96,North,0,0.0,0.0,29,0.02,,,0.13,WUHU216HW,2013-06-17 19:00:00,
2013-06-17 14:05:00,70.2,36.4,29.96,North,0,0.0,0.0,29,0.01,,,0.13,WUHU216HW,2013-06-17 19:05:00,
2013-06-17 14:09:00,70.7,36.9,29.96,North,0,0.0,0.0,29,0.01,,,0.13,WUHU216HW,2013-06-17 19:09:00,
2013-06-17 14:14:00,70.7,36.9,29.96,North,0,0.0,0.0,29,0.00,,,0.13,WUHU216HW,2013-06-17 19:14:00,
2013-06-17 14:19:00,70.6,36.7,29.96,North,0,0.0,0.0,29,0.00,,,0.13,WUHU216HW,2013-06-17 19:19:00,
2013-06-17 14:24:00,70.6,36.7,29.95,North,0,0.0,0.0,29,0.00,,,0.13,WUHU216HW,2013-06-17 19:24:00,
2013-06-17 14:29:00,70.4,36.5,29.95,North,0,0.0,0.0,29,0.01,,,0.14,WUHU216HW,2013-06-17 19:29:00,
2013-06-17 14:34:00,70.0,36.3,29.95,North,0,0.0,0.0,29,0.01,,,0.14,WUHU216HW,2013-06-17 19:34:00,
2013-06-17 14:39:00,69.5,35.7,29.95,North,0,0.0,0.0,29,0.01,,,0.14,WUHU216HW,2013-06-17 19:39:00,
2013-06-17 14:44:00,69.1,36.5,29.95,North,0,0.0,0.0,30,0.01,,,0.14,WUHU216HW,2013-06-17 19:44:00,
2013-06-17 14:49:00,69.3,36.6,29.95,North,0,0.0,0.0,30,0.01,,,0.14,WUHU216HW,2013-06-17 19:49:00,
2013-06-17 14:54:00,69.8,37.1,29.95,North,0,0.0,0.0,30,0.02,,,0.15,WUHU216HW,2013-06-17 19:54:00,
2013-06-17 14:59:00,70.0,36.3,29.95,North,0,0.0,0.0,29,0.02,,,0.15,WUHU216HW,2013-06-17 19:59:00,
2013-06-17 15:04:00,69.8,36.1,29.95,North,0,0.0,0.0,29,0.02,,,0.15,WUHU216HW,2013-06-17 20:04:00,
2013-06-17 15:09:00,70.2,36.4,29.95,North,0,0.0,0.0,29,0.02,,,0.15,WUHU216HW,2013-06-17 20:09:00,
2013-06-17 15:14:00,70.2,36.4,29.95,North,0,0.0,0.0,29,0.02,,,0.15,WUHU216HW,2013-06-17 20:14:00,
2013-06-17 15:19:00,70.2,36.4,29.95,North,0,0.0,0.0,29,0.02,,,0.15,WUHU216HW,2013-06-17 20:19:00,
2013-06-17 15:24:00,69.8,36.1,29.95,North,0,0.0,0.0,29,0.02,,,0.15,WUHU216HW,2013-06-17 20:24:00,
2013-06-17 15:29:00,69.7,35.9,29.95,North,0,0.0,0.0,29,0.01,,,0.15,WUHU216HW,2013-06-17 20:29:00,
2013-06-17 15:34:00,69.3,36.6,29.95,North,0,0.0,0.0,30,0.01,,,0.15,WUHU216HW,2013-06-17 20:34:00,
2013-06-17 15:39:00,69.1,35.5,29.95,North,0,0.0,0.0,29,0.01,,,0.15,WUHU216HW,2013-06-17 20:39:00,
2013-06-17 15:44:00,69.3,36.6,29.95,North,0,0.0,0.0,30,0.01,,,0.15,WUHU216HW,2013-06-17 20:44:00,
2013-06-17 15:49:00,69.7,36.9,29.95,North,0,0.0,0.0,30,0.01,,,0.15,WUHU216HW,2013-06-17 20:49:00,
2013-06-17 15:54:00,70.2,36.4,29.95,North,0,0.0,0.0,29,0.00,,,0.15,WUHU216HW,2013-06-17 20:54:00,
2013-06-17 15:59:00,70.2,36.4,29.95,North,0,0.0,0.0,29,0.00,,,0.15,WUHU216HW,2013-06-17 20:59:00,
2013-06-17 16:04:00,70.7,36.9,29.94,North,0,0.0,0.0,29,0.00,,,0.15,WUHU216HW,2013-06-17 21:04:00,
2013-06-17 16:09:00,71.8,36.8,29.94,North,0,0.0,0.0,28,0.00,,,0.15,WUHU216HW,2013-06-17 21:09:00,
2013-06-17 16:14:00,72.7,37.5,29.95,North,0,0.0,0.0,28,0.00,,,0.15,WUHU216HW,2013-06-17 21:14:00,
2013-06-17 16:19:00,74.5,40.1,29.95,North,0,0.0,0.0,29,0.00,,,0.15,WUHU216HW,2013-06-17 21:19:00,
2013-06-17 16:24:00,74.9,39.4,29.94,North,0,0.0,0.0,28,0.00,,,0.15,WUHU216HW,2013-06-17 21:24:00,
2013-06-17 16:29:00,74.9,39.4,29.94,North,0,0.0,0.0,28,0.00,,,0.15,WUHU216HW,2013-06-17 21:29:00,
2013-06-17 16:34:00,74.5,39.1,29.94,North,0,0.0,0.0,28,0.00,,,0.15,WUHU216HW,2013-06-17 21:34:00,
2013-06-17 16:39:00,74.2,38.8,29.94,North,0,0.0,0.0,28,0.00,,,0.15,WUHU216HW,2013-06-17 21:39:00,
2013-06-17 16:44:00,73.8,38.4,29.94,North,0,0.0,0.0,28,0.00,,,0.15,WUHU216HW,2013-06-17 21:44:00,
2013-06-17 16:49:00,73.6,38.3,29.95,North,0,0.0,0.0,28,0.00,,,0.15,WUHU216HW,2013-06-17 21:49:00,
2013-06-17 16:54:00,73.8,38.4,29.95,North,0,0.0,0.0,28,0.00,,,0.15,WUHU216HW,2013-06-17 21:54:00,
2013-06-17 16:59:00,73.8,38.4,29.95,North,0,0.0,0.0,28,0.00,,,0.15,WUHU216HW,2013-06-17 21:59:00,
2013-06-17 17:04:00,74.0,38.6,29.95,North,0,0.0,0.0,28,0.00,,,0.15,WUHU216HW,2013-06-17 22:04:00,
2013-06-17 17:09:00,74.0,38.6,29.95,North,0,0.0,0.0,28,0.00,,,0.15,WUHU216HW,2013-06-17 22:09:00,
2013-06-17 17:14:00,74.2,37.7,29.95,North,0,0.0,0.0,27,0.00,,,0.15,WUHU216HW,2013-06-17 22:14:00,
2013-06-17 17:19:00,74.5,38.1,29.95,North,0,0.0,0.0,27,0.00,,,0.15,WUHU216HW,2013-06-17 22:19:00,
2013-06-17 17:24:00,74.3,36.9,29.95,North,0,0.0,0.0,26,0.00,,,0.15,WUHU216HW,2013-06-17 22:24:00,
2013-06-17 17:29:00,74.7,39.3,29.95,North,0,0.0,0.0,28,0.00,,,0.15,WUHU216HW,2013-06-17 22:29:00,
2013-06-17 17:34:00,74.7,39.3,29.95,North,0,0.0,0.0,28,0.00,,,0.15,WUHU216HW,2013-06-17 22:34:00,
2013-06-17 17:39:00,74.9,39.4,29.95,North,0,0.0,0.0,28,0.00,,,0.15,WUHU216HW,2013-06-17 22:39:00,
2013-06-17 17:44:00,75.2,41.8,29.95,North,0,0.0,0.0,30,0.00,,,0.15,WUHU216HW,2013-06-17 22:44:00,
2013-06-17 17:49:00,75.2,40.8,29.95,North,0,0.0,0.0,29,0.00,,,0.15,WUHU216HW,2013-06-17 22:49:00,
2013-06-17 17:54:00,75.2,40.8,29.95,North,0,0.0,0.0,29,0.00,,,0.15,WUHU216HW,2013-06-17 22:54:00,
2013-06-17 17:59:00,75.6,40.1,29.95,North,0,0.0,0.0,28,0.00,,,0.15,WUHU216HW,2013-06-17 22:59:00,
2013-06-17 18:04:00,77.4,43.7,29.95,North,0,0.0,0.0,30,0.00,,,0.15,WUHU216HW,2013-06-17 23:04:00,
2013-06-17 18:09:00,78.7,46.3,29.95,NNE,23,1.3,1.3,32,0.00,,,0.15,WUHU216HW,2013-06-17 23:09:00,
2013-06-17 18:14:00,79.2,45.2,29.95,North,0,0.0,1.3,30,0.00,,,0.15,WUHU216HW,2013-06-17 23:14:00,
2013-06-17 18:19:00,80.5,47.8,29.95,North,0,0.0,1.3,32,0.00,,,0.15,WUHU216HW,2013-06-17 23:19:00,
2013-06-17 18:24:00,80.8,46.6,29.95,North,0,0.0,0.0,30,0.00,,,0.15,WUHU216HW,2013-06-17 23:24:00,
2013-06-17 18:29:00,78.7,47.0,29.95,North,0,0.0,0.0,33,0.00,,,0.15,WUHU216HW,2013-06-17 23:29:00,
2013-06-17 18:34:00,78.8,45.6,29.95,North,0,0.0,0.0,31,0.00,,,0.15,WUHU216HW,2013-06-17 23:34:00,
2013-06-17 18:39:00,78.8,46.4,29.95,North,0,0.0,0.0,32,0.00,,,0.15,WUHU216HW,2013-06-17 23:39:00,
2013-06-17 18:44:00,77.2,45.0,29.96,North,0,0.0,0.0,32,0.00,,,0.15,WUHU216HW,2013-06-17 23:44:00,
2013-06-17 18:49:00,76.5,43.7,29.95,North,0,0.0,0.0,31,0.00,,,0.15,WUHU216HW,2013-06-17 23:49:00,
2013-06-17 18:54:00,77.6,43.8,29.95,North,0,0.0,0.0,30,0.00,,,0.15,WUHU216HW,2013-06-17 23:54:00,
2013-06-17 18:59:00,78.3,45.2,29.96,North,0,0.0,0.0,31,0.00,,,0.15,WUHU216HW,2013-06-17 23:59:00,
2013-06-17 19:04:00,79.2,47.4,29.96,North,0,0.0,0.0,33,0.00,,,0.15,WUHU216HW,2013-06-18 00:04:00,
2013-06-17 19:09:00,79.0,48.9,29.95,North,0,0.0,0.0,35,0.00,,,0.15,WUHU216HW,2013-06-18 00:09:00,
2013-06-17 19:14:00,79.0,47.4,29.95,North,0,0.0,0.0,33,0.00,,,0.15,WUHU216HW,2013-06-18 00:14:00,
2013-06-17 19:19:00,79.6,47.8,29.95,North,0,0.0,0.0,33,0.00,,,0.15,WUHU216HW,2013-06-18 00:19:00,
2013-06-17 19:24:00,79.2,50.6,29.95,North,0,0.0,0.0,37,0.00,,,0.15,WUHU216HW,2013-06-18 00:24:00,
2013-06-17 19:29:00,78.5,47.6,29.95,North,0,0.0,0.0,34,0.00,,,0.15,WUHU216HW,2013-06-18 00:29:00,
2013-06-17 19:34:00,77.2,45.8,29.95,North,0,0.0,0.0,33,0.00,,,0.15,WUHU216HW,2013-06-18 00:34:00,
2013-06-17 19:39:00,76.7,44.6,29.95,North,0,0.0,0.0,32,0.00,,,0.15,WUHU216HW,2013-06-18 00:39:00,
2013-06-17 19:44:00,76.3,43.5,29.95,North,0,0.0,0.0,31,0.00,,,0.15,WUHU216HW,2013-06-18 00:44:00,
2013-06-17 19:49:00,76.0,43.2,29.95,North,0,0.0,0.0,31,0.00,,,0.15,WUHU216HW,2013-06-18 00:49:00,
2013-06-17 19:54:00,75.6,42.1,29.95,North,0,0.0,0.0,30,0.00,,,0.15,WUHU216HW,2013-06-18 00:54:00,
2013-06-17 19:59:00,75.1,41.6,29.95,North,0,0.0,0.0,30,0.00,,,0.15,WUHU216HW,2013-06-18 00:59:00,
2013-06-17 20:04:00,74.5,41.1,29.95,North,0,0.0,0.0,30,0.00,,,0.15,WUHU216HW,2013-06-18 01:04:00,
2013-06-17 20:09:00,74.2,39.8,29.95,North,0,0.0,0.0,29,0.00,,,0.15,WUHU216HW,2013-06-18 01:09:00,
2013-06-17 20:14:00,74.2,39.8,29.94,North,0,0.0,0.0,29,0.00,,,0.15,WUHU216HW,2013-06-18 01:14:00,
2013-06-17 20:19:00,73.4,39.2,29.95,North,0,0.0,0.0,29,0.00,,,0.15,WUHU216HW,2013-06-18 01:19:00,
2013-06-17 20:24:00,73.3,39.0,29.95,North,0,0.0,0.0,29,0.00,,,0.15,WUHU216HW,2013-06-18 01:24:00,
2013-06-17 20:29:00,72.7,38.5,29.95,North,0,0.0,0.0,29,0.00,,,0.15,WUHU216HW,2013-06-18 01:29:00,
2013-06-17 20:34:00,72.5,38.4,29.95,North,0,0.0,0.0,29,0.00,,,0.15,WUHU216HW,2013-06-18 01:34:00,
2013-06-17 20:39:00,72.0,38.0,29.95,North,0,0.0,0.0,29,0.00,,,0.15,WUHU216HW,2013-06-18 01:39:00,
2013-06-17 20:44:00,71.1,36.2,29.96,North,0,0.0,0.0,28,0.00,,,0.15,WUHU216HW,2013-06-18 01:44:00,
2013-06-17 20:49:00,70.7,35.8,29.96,North,0,0.0,0.0,28,0.00,,,0.15,WUHU216HW,2013-06-18 01:49:00,
2013-06-17 20:54:00,70.2,35.4,29.96,North,0,0.0,0.0,28,0.00,,,0.15,WUHU216HW,2013-06-18 01:54:00,
2013-06-17 20:59:00,69.5,34.7,29.96,North,0,0.0,0.0,28,0.00,,,0.15,WUHU216HW,2013-06-18 01:59:00,
2013-06-17 21:04:00,69.5,34.7,29.96,North,0,0.0,0.0,28,0.00,,,0.15,WUHU216HW,2013-06-18 02:04:00,
2013-06-17 21:09:00,69.1,34.5,29.96,North,0,0.0,0.0,28,0.00,,,0.15,WUHU216HW,2013-06-18 02:09:00,
2013-06-17 21:14:00,68.6,33.9,29.96,North,0,0.0,0.0,28,0.00,,,0.15,WUHU216HW,2013-06-18 02:14:00,
2013-06-17 21:19:00,68.4,33.9,29.97,North,0,0.0,0.0,28,0.00,,,0.15,WUHU216HW,2013-06-18 02:19:00,
2013-06-17 21:24:00,68.4,33.9,29.97,North,0,0.0,0.0,28,0.00,,,0.15,WUHU216HW,2013-06-18 02:24:00,
2013-06-17 21:29:00,68.2,33.7,29.96,North,0,0.0,0.0,28,0.00,,,0.15,WUHU216HW,2013-06-18 02:29:00,
2013-06-17 21:34:00,67.9,33.3,29.96,North,0,0.0,0.0,28,0.00,,,0.15,WUHU216HW,2013-06-18 02:34:00,
2013-06-17 21:39:00,67.7,33.2,29.96,North,0,0.0,0.0,28,0.00,,,0.15,WUHU216HW,2013-06-18 02:39:00,
2013-06-17 21:44:00,67.3,32.9,29.97,North,0,0.0,0.0,28,0.00,,,0.15,WUHU216HW,2013-06-18 02:44:00,
2013-06-17 21:49:00,67.1,32.8,29.97,North,0,0.0,0.0,28,0.00,,,0.15,WUHU216HW,2013-06-18 02:49:00,
2013-06-17 21:54:00,67.0,33.6,29.97,North,0,0.0,0.0,29,0.00,,,0.15,WUHU216HW,2013-06-18 02:54:00,
2013-06-17 21:59:00,66.6,33.3,29.97,North,0,0.0,0.0,29,0.00,,,0.15,WUHU216HW,2013-06-18 02:59:00,
2013-06-17 22:04:00,66.6,33.3,29.98,North,0,0.0,0.0,29,0.00,,,0.15,WUHU216HW,2013-06-18 03:04:00,
2013-06-17 22:09:00,66.4,33.1,29.98,North,0,0.0,0.0,29,0.00,,,0.15,WUHU216HW,2013-06-18 03:09:00,
2013-06-17 22:14:00,66.6,33.3,29.98,North,0,0.0,0.0,29,0.00,,,0.15,WUHU216HW,2013-06-18 03:14:00,
2013-06-17 22:19:00,66.6,33.3,29.98,North,0,0.0,0.0,29,0.00,,,0.15,WUHU216HW,2013-06-18 03:19:00,
2013-06-17 22:24:00,66.8,33.5,29.98,North,0,0.0,0.0,29,0.00,,,0.15,WUHU216HW,2013-06-18 03:24:00,
2013-06-17 22:29:00,66.8,33.5,29.98,North,0,0.0,0.0,29,0.00,,,0.15,WUHU216HW,2013-06-18 03:29:00,
2013-06-17 22:34:00,66.6,33.3,29.99,North,0,0.0,0.0,29,0.00,,,0.15,WUHU216HW,2013-06-18 03:34:00,
2013-06-17 22:39:00,66.6,33.3,29.98,North,0,0.0,0.0,29,0.00,,,0.15,WUHU216HW,2013-06-18 03:39:00,
2013-06-17 22:44:00,66.6,33.3,29.98,North,0,0.0,0.0,29,0.00,,,0.15,WUHU216HW,2013-06-18 03:44:00,
2013-06-17 22:48:00,66.2,33.0,29.98,North,0,0.0,0.0,29,0.00,,,0.15,WUHU216HW,2013-06-18 03:48:00,
2013-06-17 22:53:00,66.2,33.0,29.98,North,0,0.0,0.0,29,0.00,,,0.15,WUHU216HW,2013-06-18 03:53:00,
2013-06-17 22:58:00,66.1,32.9,29.98,North,0,0.0,0.0,29,0.00,,,0.15,WUHU216HW,2013-06-18 03:58:00,
2013-06-17 23:01:00,66.1,32.9,29.98,North,0,0.0,0.0,29,0.00,,,0.15,WUHU216HW,2013-06-18 04:01:00,
2013-06-17 23:06:00,65.9,32.7,29.98,North,0,0.0,0.0,29,0.00,,,0.15,WUHU216HW,2013-06-18 04:06:00,
2013-06-17 23:11:00,65.7,32.5,29.99,North,0,0.0,0.0,29,0.00,,,0.15,WUHU216HW,2013-06-18 04:11:00,
2013-06-17 23:16:00,65.5,32.4,29.99,North,0,0.0,0.0,29,0.00,,,0.15,WUHU216HW,2013-06-18 04:16:00,
2013-06-17 23:21:00,65.5,33.4,29.99,North,0,0.0,0.0,30,0.00,,,0.15,WUHU216HW,2013-06-18 04:21:00,
2013-06-17 23:26:00,65.5,32.4,29.99,North,0,0.0,0.0,29,0.00,,,0.15,WUHU216HW,2013-06-18 04:26:00,
2013-06-17 23:31:00,65.3,32.2,29.99,North,0,0.0,0.0,29,0.00,,,0.15,WUHU216HW,2013-06-18 04:31:00,
2013-06-17 23:36:00,65.3,33.2,29.99,North,0,0.0,0.0,30,0.00,,,0.15,WUHU216HW,2013-06-18 04:36:00,
2013-06-17 23:41:00,65.2,33.0,29.98,North,0,0.0,0.0,30,0.00,,,0.15,WUHU216HW,2013-06-18 04:41:00,
2013-06-17 23:46:00,65.0,32.9,29.98,North,0,0.0,0.0,30,0.00,,,0.15,WUHU216HW,2013-06-18 04:46:00,
2013-06-17 23:51:00,64.8,32.8,29.98,North,0,0.0,0.0,30,0.00,,,0.15,WUHU216HW,2013-06-18 04:51:00,
2013-06-17 23:56:00,64.6,32.6,29.99,North,0,0.0,0.0,30,0.00,,,0.15,WUHU216HW,2013-06-18 04:56:00,